This is the latest recevied weather packets stored in our database for station/object KD8DLP-13. If no packets are shown the sender has not sent any weather packets the latest 10 day(s).
| Time | Temp. | Humidity | Pressure | Rain* | Wind** | Luminosity | Snow |
|---|---|---|---|---|---|---|---|
| 1777851304 | 13.89° C | 62% | 1007.3 hPa | 0 mm | - | 43 W/m² | - |
| 1777851000 | 13.89° C | 62% | 1007.3 hPa | 0 mm | - | 62 W/m² | - |
| 1777850697 | 13.89° C | 61% | 1007.7 hPa | 0 mm | - | 50 W/m² | - |
| 1777850395 | 13.89° C | 61% | 1007.6 hPa | 0 mm | - | 51 W/m² | - |
| 1777850092 | 13.89° C | 62% | 1008 hPa | 0 mm | - | 68 W/m² | - |
| 1777849788 | 13.89° C | 61% | 1007.8 hPa | 0 mm | - | 72 W/m² | - |
| 1777849485 | 13.89° C | 61% | 1007.8 hPa | 0 mm | - | 77 W/m² | - |
| 1777849183 | 13.89° C | 60% | 1007.8 hPa | 0 mm | - | 79 W/m² | - |
| 1777848879 | 14.44° C | 60% | 1008 hPa | 0 mm | - | 78 W/m² | - |
| 1777848575 | 14.44° C | 60% | 1008.1 hPa | 0 mm | - | 107 W/m² | - |
| 1777848272 | 14.44° C | 59% | 1008.3 hPa | 0 mm | - | 184 W/m² | - |
| 1777847970 | 13.89° C | 59% | 1008.3 hPa | 0 mm | - | 204 W/m² | - |
| 1777847668 | 13.89° C | 61% | 1008.4 hPa | 0 mm | - | 220 W/m² | - |
| 1777847363 | 13.89° C | 60% | 1008.6 hPa | 0 mm | - | 135 W/m² | - |
| 1777847062 | 13.89° C | 61% | 1008.7 hPa | 0 mm | - | 124 W/m² | - |
| 1777846760 | 13.89° C | 62% | 1008.9 hPa | 0 mm | - | 107 W/m² | - |
| 1777846458 | 13.89° C | 61% | 1008.6 hPa | 0 mm | - | 106 W/m² | - |
| 1777846154 | 13.89° C | 60% | 1008.8 hPa | 0 mm | - | 131 W/m² | - |
| 1777845850 | 13.89° C | 61% | 1008.8 hPa | 0 mm | - | 195 W/m² | - |
| 1777845548 | 13.89° C | 61% | 1008.8 hPa | 0 mm | - | 116 W/m² | - |
| 1777845244 | 13.89° C | 60% | 1009.3 hPa | 0 mm | - | 163 W/m² | - |
| 1777844942 | 14.44° C | 62% | 1009.3 hPa | 0 mm | - | 200 W/m² | - |
| 1777844639 | 13.33° C | 64% | 1009.3 hPa | 0 mm | - | 392 W/m² | - |
| 1777844336 | 12.78° C | 66% | 1009.3 hPa | 0 mm | - | 261 W/m² | - |
| 1777844034 | 12.78° C | 67% | 1009.5 hPa | 0 mm | - | 171 W/m² | - |
* Rain latest hour (hover to see other rain measurements)
** Current wind speed in m/s (hover to see current wind gust speed)